VOE1KT LFBO-LFQQ

Flight info

Callsign VOE1KT
Flight time 1h 11m
Altitude 32000
Route FISTO DCT PERIG DCT ADABI DCT BOKNO UN858 VANAD UN874 ARSAF DCT EGOZE DCT PERON N874 SULEX
Aircraft A320/M-SDE3FGHIRWY/LB1

Departure

Time 2026-05-07 20:08
Airport Toulouse-Blagnac Airport (LFBO)

Arrival

Time 2026-05-07 21:19
Airport Lille Airport (LFQQ)
Time Latitude Longitude Altitude Speed Heading
2026-05-07 19:16 43.62802 1.37633 503 ft 0 kts 58°
2026-05-07 19:57 43.62801 1.37632 503 ft 1 kts 58°
2026-05-07 19:57 43.62793 1.37612 503 ft 3 kts 58°
2026-05-07 19:57 43.62783 1.37592 503 ft 3 kts 92°
2026-05-07 19:58 43.62788 1.37577 503 ft 1 kts 142°
2026-05-07 19:58 43.62800 1.37565 503 ft 2 kts 142°
2026-05-07 19:58 43.62804 1.37560 503 ft 0 kts 142°
2026-05-07 20:02 43.62789 1.37576 503 ft 4 kts 143°
2026-05-07 20:02 43.62749 1.37619 503 ft 9 kts 144°
2026-05-07 20:02 43.62693 1.37596 503 ft 11 kts 229°
2026-05-07 20:02 43.62639 1.37485 503 ft 15 kts 238°
2026-05-07 20:03 43.62580 1.37370 503 ft 10 kts 233°
2026-05-07 20:03 43.62512 1.37350 503 ft 13 kts 151°
2026-05-07 20:03 43.62427 1.37436 503 ft 16 kts 143°
2026-05-07 20:03 43.62339 1.37528 504 ft 16 kts 143°
2026-05-07 20:04 43.62251 1.37619 504 ft 16 kts 143°
2026-05-07 20:04 43.62163 1.37710 504 ft 16 kts 142°
2026-05-07 20:04 43.62073 1.37804 505 ft 17 kts 143°
2026-05-07 20:04 43.61973 1.37908 504 ft 19 kts 143°
2026-05-07 20:05 43.61864 1.38018 504 ft 16 kts 143°
2026-05-07 20:05 43.61775 1.38114 504 ft 14 kts 143°
2026-05-07 20:05 43.61691 1.38177 503 ft 12 kts 175°
2026-05-07 20:05 43.61639 1.38132 504 ft 0 kts 232°
2026-05-07 20:06 43.61634 1.38123 504 ft 5 kts 232°
2026-05-07 20:06 43.61606 1.38073 504 ft 7 kts 232°
2026-05-07 20:07 43.61591 1.37991 503 ft 10 kts 302°
2026-05-07 20:07 43.61656 1.37922 503 ft 20 kts 322°
2026-05-07 20:07 43.61970 1.37599 505 ft 92 kts 323°
2026-05-07 20:07 43.62651 1.36893 503 ft 151 kts 323°
2026-05-07 20:08 43.63556 1.35963 947 ft 160 kts 324°
2026-05-07 20:08 43.64446 1.35028 1615 ft 162 kts 322°
2026-05-07 20:08 43.65324 1.34046 2248 ft 162 kts 322°
2026-05-07 20:08 43.66202 1.33069 2832 ft 162 kts 321°
2026-05-07 20:09 43.67083 1.32094 3407 ft 162 kts 321°
2026-05-07 20:09 43.67976 1.31112 3905 ft 168 kts 322°
2026-05-07 20:09 43.68955 1.30039 4173 ft 191 kts 322°
2026-05-07 20:10 43.71275 1.27490 4729 ft 238 kts 324°
2026-05-07 20:10 43.72833 1.26476 5110 ft 261 kts 346°
2026-05-07 20:10 43.74642 1.25877 5801 ft 271 kts 347°
2026-05-07 20:10 43.76493 1.25283 6677 ft 275 kts 348°
2026-05-07 20:11 43.78409 1.25028 7524 ft 279 kts 359°
2026-05-07 20:11 43.80361 1.24974 8375 ft 283 kts 358°
2026-05-07 20:11 43.82341 1.24912 9222 ft 287 kts 358°
2026-05-07 20:11 43.84350 1.24844 10038 ft 291 kts 357°
2026-05-07 20:12 43.86441 1.24772 10436 ft 312 kts 357°
2026-05-07 20:12 43.88679 1.24696 10804 ft 330 kts 357°
2026-05-07 20:12 43.90973 1.24620 11691 ft 328 kts 357°
2026-05-07 20:12 43.93246 1.24544 12587 ft 328 kts 357°
2026-05-07 20:13 43.95540 1.24464 13394 ft 330 kts 356°
2026-05-07 20:13 43.97852 1.24383 14113 ft 334 kts 356°
2026-05-07 20:13 44.00187 1.24302 14762 ft 338 kts 356°
2026-05-07 20:13 44.02556 1.24222 15412 ft 342 kts 357°
2026-05-07 20:14 44.04950 1.24144 16063 ft 346 kts 357°
2026-05-07 20:14 44.07371 1.24062 16701 ft 350 kts 357°
2026-05-07 20:14 44.09820 1.23977 17338 ft 354 kts 356°
2026-05-07 20:14 44.12294 1.23892 17978 ft 358 kts 357°
2026-05-07 20:15 44.14799 1.23805 18559 ft 362 kts 356°
2026-05-07 20:15 44.17329 1.23720 19116 ft 365 kts 356°
2026-05-07 20:15 44.19882 1.23632 19671 ft 369 kts 356°
2026-05-07 20:15 44.22463 1.23543 20219 ft 372 kts 356°
2026-05-07 20:16 44.25038 1.23453 20760 ft 376 kts 356°
2026-05-07 20:16 44.27700 1.23360 21304 ft 380 kts 356°
2026-05-07 20:16 44.30316 1.23270 21835 ft 383 kts 356°
2026-05-07 20:16 44.32997 1.23178 22365 ft 387 kts 356°
2026-05-07 20:17 44.35702 1.23086 22896 ft 390 kts 356°
2026-05-07 20:17 44.38432 1.22989 23432 ft 394 kts 356°
2026-05-07 20:17 44.41187 1.22891 23889 ft 397 kts 356°
2026-05-07 20:17 44.43958 1.22794 24359 ft 400 kts 355°
2026-05-07 20:18 44.46734 1.22414 24820 ft 400 kts 346°
2026-05-07 20:18 44.49433 1.21450 25272 ft 401 kts 341°
2026-05-07 20:18 44.52129 1.20388 25724 ft 404 kts 341°
2026-05-07 20:18 44.54848 1.19325 26170 ft 407 kts 341°
2026-05-07 20:19 44.57584 1.18261 26602 ft 409 kts 341°
2026-05-07 20:19 44.60339 1.17192 27025 ft 412 kts 341°
2026-05-07 20:19 44.63107 1.16115 27439 ft 415 kts 341°
2026-05-07 20:19 44.65901 1.15024 27844 ft 417 kts 341°
2026-05-07 20:20 44.68712 1.13927 28243 ft 420 kts 341°
2026-05-07 20:20 44.71532 1.12824 28632 ft 422 kts 341°
2026-05-07 20:20 44.74370 1.11709 29013 ft 425 kts 341°
2026-05-07 20:20 44.77223 1.10586 29381 ft 427 kts 341°
2026-05-07 20:21 44.80097 1.09454 29750 ft 430 kts 341°
2026-05-07 20:21 44.82982 1.08315 30088 ft 432 kts 341°
2026-05-07 20:21 44.85852 1.07182 30379 ft 435 kts 341°
2026-05-07 20:21 44.88778 1.06028 30687 ft 437 kts 341°
2026-05-07 20:22 44.91714 1.04873 30983 ft 439 kts 341°
2026-05-07 20:22 44.94661 1.03711 31273 ft 441 kts 341°
2026-05-07 20:22 44.97630 1.02539 31559 ft 444 kts 341°
2026-05-07 20:22 45.00615 1.01359 31840 ft 446 kts 341°
2026-05-07 20:23 45.03611 1.00172 32111 ft 448 kts 341°
2026-05-07 20:23 45.06616 0.98979 32369 ft 450 kts 341°
2026-05-07 20:23 45.09641 0.97777 32629 ft 452 kts 341°
2026-05-07 20:23 45.12674 0.96591 32877 ft 454 kts 343°
2026-05-07 20:24 45.15756 0.95533 33116 ft 457 kts 345°
2026-05-07 20:24 45.18845 0.94611 33338 ft 460 kts 346°
2026-05-07 20:24 45.21995 0.93747 33566 ft 462 kts 347°
2026-05-07 20:24 45.25164 0.92898 33782 ft 464 kts 347°
2026-05-07 20:25 45.28346 0.92026 33982 ft 465 kts 346°
2026-05-07 20:25 45.31527 0.91118 34157 ft 467 kts 346°
2026-05-07 20:25 45.34719 0.90174 34318 ft 468 kts 346°
2026-05-07 20:25 45.37917 0.89206 34468 ft 470 kts 345°
2026-05-07 20:26 45.41075 0.88243 34624 ft 471 kts 345°
2026-05-07 20:26 45.44287 0.87266 34764 ft 472 kts 345°
2026-05-07 20:26 45.47501 0.86291 34901 ft 473 kts 345°
2026-05-07 20:26 45.50731 0.85317 35077 ft 472 kts 345°
2026-05-07 20:27 45.53921 0.84360 35527 ft 466 kts 345°
2026-05-07 20:27 45.57088 0.83412 35846 ft 463 kts 345°
2026-05-07 20:27 45.60238 0.82467 35975 ft 462 kts 345°
2026-05-07 20:28 45.66503 0.80589 35986 ft 459 kts 345°
2026-05-07 20:28 45.72755 0.78698 35991 ft 458 kts 345°
2026-05-07 20:29 45.78957 0.76816 35985 ft 458 kts 345°
2026-05-07 20:29 45.85230 0.75010 35979 ft 458 kts 345°
2026-05-07 20:30 45.91424 0.73094 35988 ft 457 kts 345°
2026-05-07 20:30 45.97647 0.71134 35991 ft 457 kts 345°
2026-05-07 20:31 46.03878 0.69210 35982 ft 457 kts 345°
2026-05-07 20:31 46.10107 0.67315 36003 ft 457 kts 345°
2026-05-07 20:32 46.16293 0.65424 35987 ft 457 kts 345°
2026-05-07 20:32 46.22517 0.63503 36003 ft 457 kts 345°
2026-05-07 20:33 46.28781 0.61570 35995 ft 457 kts 345°
2026-05-07 20:33 46.34962 0.59660 35997 ft 457 kts 345°
2026-05-07 20:34 46.41198 0.57739 36004 ft 457 kts 345°
2026-05-07 20:34 46.47431 0.55804 36007 ft 457 kts 345°
2026-05-07 20:35 46.53675 0.53995 36003 ft 459 kts 351°
2026-05-07 20:35 46.60074 0.54390 36002 ft 464 kts 10°
2026-05-07 20:36 46.66386 0.56490 35999 ft 465 kts 12°
2026-05-07 20:36 46.72658 0.58833 35996 ft 466 kts 13°
2026-05-07 20:37 46.78926 0.61303 36001 ft 467 kts 13°
2026-05-07 20:37 46.85206 0.63748 36004 ft 467 kts 13°
2026-05-07 20:38 46.91488 0.66149 36007 ft 467 kts 12°
2026-05-07 20:38 46.97732 0.68547 36011 ft 466 kts 12°
2026-05-07 20:39 47.04009 0.70957 36010 ft 466 kts 12°
2026-05-07 20:39 47.10280 0.73386 36012 ft 466 kts 13°
2026-05-07 20:40 47.16547 0.75818 36021 ft 465 kts 12°
2026-05-07 20:40 47.22814 0.78243 36025 ft 465 kts 12°
2026-05-07 20:41 47.29078 0.80679 36028 ft 465 kts 13°
2026-05-07 20:41 47.35330 0.83131 36030 ft 465 kts 13°
2026-05-07 20:42 47.41582 0.85587 36029 ft 465 kts 12°
2026-05-07 20:42 47.47831 0.88033 36028 ft 464 kts 12°
2026-05-07 20:43 47.54082 0.90482 36024 ft 464 kts 12°
2026-05-07 20:43 47.60332 0.92942 36020 ft 465 kts 12°
2026-05-07 20:44 47.66542 0.95399 36022 ft 465 kts 12°
2026-05-07 20:44 47.72789 0.97861 36018 ft 465 kts 12°
2026-05-07 20:45 47.79038 1.00342 36023 ft 465 kts 13°
2026-05-07 20:45 47.85282 1.02836 36029 ft 465 kts 13°
2026-05-07 20:46 47.90513 1.04927 36031 ft 465 kts 13°
2026-05-07 20:46 47.96736 1.07421 36035 ft 465 kts 13°
2026-05-07 20:47 48.02989 1.09932 36039 ft 464 kts 13°
2026-05-07 20:47 48.09227 1.12436 36037 ft 464 kts 12°
2026-05-07 20:48 48.15458 1.14938 36040 ft 464 kts 13°
2026-05-07 20:48 48.21697 1.17450 36042 ft 463 kts 13°
2026-05-07 20:49 48.27889 1.19961 36042 ft 464 kts 13°
2026-05-07 20:49 48.34115 1.22500 36045 ft 464 kts 13°
2026-05-07 20:50 48.40341 1.25038 36045 ft 463 kts 13°
2026-05-07 20:50 48.46561 1.27576 36050 ft 463 kts 13°
2026-05-07 20:51 48.52774 1.30111 36048 ft 462 kts 13°
2026-05-07 20:51 48.58980 1.32659 36051 ft 462 kts 13°
2026-05-07 20:52 48.65199 1.35219 36057 ft 462 kts 13°
2026-05-07 20:52 48.71412 1.37772 36062 ft 462 kts 13°
2026-05-07 20:53 48.77620 1.40342 36061 ft 462 kts 13°
2026-05-07 20:53 48.83782 1.42901 36064 ft 462 kts 13°
2026-05-07 20:54 48.89909 1.45438 36067 ft 462 kts 13°
2026-05-07 20:54 48.96021 1.48806 36063 ft 464 kts 27°
2026-05-07 20:55 49.01136 1.54789 36064 ft 467 kts 46°
2026-05-07 20:55 49.05468 1.62174 35631 ft 467 kts 47°
2026-05-07 20:55 49.07626 1.65870 35067 ft 464 kts 48°
2026-05-07 20:56 49.09756 1.69525 34627 ft 458 kts 48°
2026-05-07 20:56 49.11866 1.73158 34076 ft 455 kts 48°
2026-05-07 20:56 49.13949 1.76743 33655 ft 448 kts 48°
2026-05-07 20:56 49.16014 1.80305 32880 ft 451 kts 48°
2026-05-07 20:57 49.18096 1.83903 32160 ft 451 kts 48°
2026-05-07 20:57 49.20161 1.87480 31753 ft 446 kts 48°
2026-05-07 20:57 49.22185 1.90990 31528 ft 435 kts 48°
2026-05-07 20:57 49.24171 1.94435 31028 ft 431 kts 48°
2026-05-07 20:58 49.26152 1.97869 30607 ft 426 kts 48°
2026-05-07 20:58 49.28110 2.01262 30098 ft 424 kts 48°
2026-05-07 20:58 49.30035 2.04603 29669 ft 417 kts 48°
2026-05-07 20:58 49.31961 2.07959 28923 ft 420 kts 48°
2026-05-07 20:59 49.33887 2.11320 28348 ft 418 kts 48°
2026-05-07 20:59 49.35795 2.14656 27830 ft 414 kts 48°
2026-05-07 20:59 49.37663 2.17929 27341 ft 411 kts 48°
2026-05-07 20:59 49.39526 2.21203 27073 ft 402 kts 48°
2026-05-07 21:00 49.41350 2.24406 26777 ft 395 kts 48°
2026-05-07 21:00 49.43153 2.27573 26305 ft 393 kts 48°
2026-05-07 21:00 49.44945 2.30731 25820 ft 391 kts 48°
2026-05-07 21:00 49.46729 2.33875 25349 ft 389 kts 48°
2026-05-07 21:01 49.48508 2.37009 24865 ft 388 kts 48°
2026-05-07 21:01 49.50279 2.40130 24421 ft 385 kts 48°
2026-05-07 21:01 49.52038 2.43232 23935 ft 384 kts 48°
2026-05-07 21:01 49.53784 2.46320 23470 ft 382 kts 48°
2026-05-07 21:02 49.55638 2.49140 23056 ft 375 kts 37°
2026-05-07 21:02 49.57788 2.51409 22522 ft 372 kts 30°
2026-05-07 21:02 49.59970 2.53516 22042 ft 371 kts 30°
2026-05-07 21:02 49.62144 2.55610 21652 ft 366 kts 30°
2026-05-07 21:03 49.64300 2.57693 21214 ft 363 kts 30°
2026-05-07 21:03 49.66440 2.59766 20734 ft 362 kts 30°
2026-05-07 21:03 49.68563 2.61823 20278 ft 361 kts 30°
2026-05-07 21:03 49.70673 2.63871 19917 ft 357 kts 30°
2026-05-07 21:04 49.72775 2.65914 19523 ft 354 kts 30°
2026-05-07 21:04 49.74860 2.67949 19064 ft 354 kts 31°
2026-05-07 21:04 49.76967 2.70007 18568 ft 361 kts 31°
2026-05-07 21:04 49.79089 2.72080 18096 ft 360 kts 31°
2026-05-07 21:05 49.81199 2.74140 17646 ft 357 kts 31°
2026-05-07 21:05 49.83295 2.76189 17205 ft 355 kts 31°
2026-05-07 21:05 49.85374 2.78225 16770 ft 353 kts 31°
2026-05-07 21:05 49.87443 2.80258 16359 ft 350 kts 31°
2026-05-07 21:06 49.89494 2.82278 15953 ft 348 kts 31°
2026-05-07 21:06 49.91535 2.84285 15550 ft 346 kts 31°
2026-05-07 21:06 49.93567 2.86276 15152 ft 344 kts 31°
2026-05-07 21:06 49.95590 2.88253 14690 ft 344 kts 31°
2026-05-07 21:07 49.97630 2.90209 14222 ft 344 kts 27°
2026-05-07 21:07 49.99856 2.91497 13812 ft 341 kts 10°
2026-05-07 21:07 50.02199 2.91732 13352 ft 336 kts 353°
2026-05-07 21:07 50.04487 2.91094 12895 ft 333 kts 346°
2026-05-07 21:08 50.06747 2.90342 12503 ft 330 kts 346°
2026-05-07 21:08 50.08930 2.89609 12326 ft 320 kts 346°
2026-05-07 21:08 50.11074 2.88887 12123 ft 310 kts 346°
2026-05-07 21:08 50.13169 2.88183 11525 ft 305 kts 347°
2026-05-07 21:09 50.15205 2.87500 11114 ft 293 kts 347°
2026-05-07 21:09 50.17200 2.86829 10738 ft 293 kts 347°
2026-05-07 21:09 50.19194 2.86158 10359 ft 293 kts 347°
2026-05-07 21:09 50.21183 2.85487 9964 ft 293 kts 347°
2026-05-07 21:10 50.23151 2.84826 9753 ft 285 kts 347°
2026-05-07 21:10 50.25078 2.84179 9383 ft 282 kts 347°
2026-05-07 21:10 50.26982 2.83539 8796 ft 278 kts 347°
2026-05-07 21:10 50.28839 2.82915 8353 ft 268 kts 347°
2026-05-07 21:11 50.30631 2.82311 7968 ft 262 kts 347°
2026-05-07 21:11 50.32408 2.81712 7579 ft 261 kts 347°
2026-05-07 21:11 50.35966 2.80505 6778 ft 262 kts 347°
2026-05-07 21:12 50.37731 2.79909 6532 ft 255 kts 347°
2026-05-07 21:12 50.39436 2.79336 6308 ft 247 kts 347°
2026-05-07 21:12 50.41097 2.78789 6126 ft 244 kts 348°
2026-05-07 21:12 50.42775 2.78284 5709 ft 246 kts 349°
2026-05-07 21:13 50.44435 2.77805 5369 ft 244 kts 349°
2026-05-07 21:13 50.46113 2.77326 4975 ft 245 kts 349°
2026-05-07 21:13 50.47775 2.76849 4617 ft 241 kts 349°
2026-05-07 21:13 50.49384 2.76412 4382 ft 230 kts 355°
2026-05-07 21:14 50.50896 2.76869 4254 ft 217 kts 31°
2026-05-07 21:14 50.51928 2.78484 3998 ft 211 kts 65°
2026-05-07 21:14 50.52334 2.80661 3674 ft 207 kts 79°
2026-05-07 21:14 50.52646 2.82853 3383 ft 203 kts 78°
2026-05-07 21:15 50.52949 2.84976 3091 ft 196 kts 78°
2026-05-07 21:15 50.53245 2.87046 2856 ft 192 kts 78°
2026-05-07 21:15 50.53533 2.89065 2579 ft 187 kts 79°
2026-05-07 21:15 50.53813 2.91028 2334 ft 181 kts 78°
2026-05-07 21:16 50.54086 2.92931 2099 ft 175 kts 78°
2026-05-07 21:16 50.54342 2.94705 1874 ft 162 kts 78°
2026-05-07 21:16 50.54581 2.96364 1666 ft 149 kts 78°
2026-05-07 21:16 50.54802 2.97910 1481 ft 142 kts 78°
2026-05-07 21:17 50.55016 2.99413 1296 ft 140 kts 77°
2026-05-07 21:17 50.55236 3.00925 1160 ft 148 kts 77°
2026-05-07 21:17 50.55457 3.02441 974 ft 141 kts 78°
2026-05-07 21:17 50.55663 3.03951 776 ft 141 kts 76°
2026-05-07 21:18 50.55873 3.05454 603 ft 141 kts 76°
2026-05-07 21:18 50.56090 3.06968 386 ft 142 kts 75°
2026-05-07 21:18 50.56311 3.08478 204 ft 139 kts 75°
2026-05-07 21:18 50.56504 3.09806 159 ft 103 kts 79°
2026-05-07 21:19 50.56622 3.10644 147 ft 54 kts 77°
2026-05-07 21:19 50.56671 3.11006 147 ft 26 kts 78°
2026-05-07 21:19 50.56712 3.11282 147 ft 27 kts 77°
2026-05-07 21:19 50.56753 3.11572 149 ft 12 kts 72°
2026-05-07 21:20 50.56840 3.11616 146 ft 17 kts 348°
2026-05-07 21:20 50.56928 3.11566 144 ft 10 kts 315°
2026-05-07 21:20 50.56938 3.11478 145 ft 7 kts 260°
2026-05-07 21:20 50.56930 3.11412 146 ft 5 kts 258°
2026-05-07 21:21 50.56915 3.11312 147 ft 14 kts 256°
2026-05-07 21:21 50.56887 3.11125 146 ft 20 kts 258°
2026-05-07 21:21 50.56858 3.10911 146 ft 15 kts 257°
2026-05-07 21:21 50.56856 3.10770 148 ft 12 kts 300°
2026-05-07 21:22 50.56914 3.10725 149 ft 8 kts 346°
2026-05-07 21:22 50.56967 3.10706 150 ft 8 kts 348°
2026-05-07 21:22 50.57015 3.10690 151 ft 6 kts 348°
2026-05-07 21:22 50.57054 3.10677 153 ft 5 kts 346°
2026-05-07 21:23 50.57086 3.10679 154 ft 4 kts 13°
2026-05-07 21:23 50.57107 3.10685 155 ft 0 kts 17°